Quillayute, WA

5:41 PM PDT on March 30, 2017 (GMT -0700)
Quillayute

Weather History for KUIL - December, 2012

Change the Weather History Date:

Thursday, December 27, 2012

  Actual Average Record
Temperature  
Mean Temperature 42 °F 40 °F  
Max Temperature 46 °F 46 °F 55 °F (1991)
Min Temperature 37 °F 35 °F 17 °F (1971)
Degree Days  
Heating Degree Days 23 25  
Month to date heating degree days 667  
Since 1 July heating degree days 2381  
Cooling Degree Days 0 0  
Month to date cooling degree days 0  
Year to date cooling degree days 19  
Moisture  
Dew Point 40 °F    
Average Humidity 97    
Maximum Humidity 100    
Minimum Humidity 87    
Precipitation  
Precipitation 0.13 in 0.40 in 2.70 in (1994)
Month to date precipitation 11.38  
Year to date precipitation 97.93  
Sea Level Pressure  
Sea Level Pressure 30.05 in    
Wind  
Wind Speed 2 mph (East)    
Max Wind Speed 9 mph    
Max Gust Speed 12 mph    
Visibility 4 miles    
Events Rain    
T = Trace of Precipitation, MM = Missing Value Source: NWS Daily Summary

Daily Weather History Graph

Daily Weather History Graph

Search for Another Location

Airport or City:

Trip Planner

Search our weather history database for the weather conditions in past years. The results will help you decide how hot, cold, wet, or windy it might be!

Date:

Astronomy

Dec. 27, 2012 Rise Set
Actual Time 8:07 AM PST 4:32 PM PST
Civil Twilight 7:31 AM PST 5:08 PM PST
Nautical Twilight 6:51 AM PST 5:47 PM PST
Astronomical Twilight 6:13 AM PST 6:25 PM PST
Moon 4:23 PM PST (12/27) 7:20 AM PST (12/27)
Length of Visible Light 9h 37m
Length of Day
8h 24m
Full, 100% of the Moon is Illuminated
Dec 27
Full
Dec 28
Full
Jan 4
Last Quarter
Jan 11
New
Jan 18
First Quarter

Hourly Weather History & Observations

Time (PST) Temp. Windchill Dew Point Humidity Pressure Visibility Wind Dir Wind Speed Gust Speed Precip Events Conditions
12:11 AM 39.2 °F - 39.2 °F 100% 29.93 in 3.0 mi Calm Calm - 0.00 in Rain Light Rain
12:20 AM 39.2 °F 37.0 °F 39.2 °F 100% 29.93 in 2.0 mi East 3.5 mph - 0.00 in Rain Light Rain
12:27 AM 39.2 °F 37.0 °F 39.2 °F 100% 29.93 in 3.0 mi East 3.5 mph - 0.00 in Rain Light Rain
12:43 AM 39.2 °F 37.0 °F 39.2 °F 100% 29.94 in 3.0 mi ENE 3.5 mph - 0.00 in Rain Light Rain
12:53 AM 39.9 °F 36.7 °F 39.9 °F 100% 29.95 in 2.5 mi East 4.6 mph - 0.00 in   Overcast
1:01 AM 39.2 °F 35.0 °F 39.2 °F 100% 29.95 in 4.0 mi East 5.8 mph - 0.01 in   Overcast
1:50 AM 39.2 °F 37.0 °F 39.2 °F 100% 29.97 in 2.5 mi East 3.5 mph - 0.01 in Rain Light Rain
1:53 AM 39.9 °F - 39.9 °F 100% 29.98 in 4.0 mi Calm Calm - 0.01 in Rain Light Rain
2:10 AM 39.2 °F 37.0 °F 39.2 °F 100% 29.97 in 2.5 mi ESE 3.5 mph - 0.02 in Rain Light Rain
2:19 AM 39.2 °F - 39.2 °F 100% 29.98 in 4.0 mi Calm Calm - 0.02 in Rain Light Rain
2:26 AM 39.2 °F - 39.2 °F 100% 29.98 in 3.0 mi Calm Calm - 0.02 in Rain Light Rain
2:36 AM 39.2 °F 37.0 °F 39.2 °F 100% 29.98 in 2.5 mi ESE 3.5 mph - 0.02 in Rain Light Rain
2:53 AM 39.9 °F - 39.9 °F 100% 29.99 in 2.5 mi Calm Calm - 0.03 in Rain Light Rain
3:00 AM 39.2 °F - 39.2 °F 100% 29.99 in 3.0 mi Calm Calm - 0.00 in Rain Light Rain
3:15 AM 39.2 °F - 39.2 °F 100% 29.99 in 3.0 mi Calm Calm - 0.01 in Rain Light Rain
3:30 AM 39.2 °F 35.9 °F 39.2 °F 100% 29.99 in 4.0 mi East 4.6 mph - 0.01 in   Overcast
3:53 AM 39.9 °F 37.8 °F 39.0 °F 97% 30.00 in 7.0 mi NE 3.5 mph - 0.01 in   Overcast
4:16 AM 39.2 °F - 39.2 °F 100% 30.00 in 6.0 mi Calm Calm - N/A   Mostly Cloudy
4:53 AM 39.0 °F - 39.0 °F 100% 30.01 in 6.0 mi Calm Calm - N/A   Overcast
5:09 AM 39.2 °F - 39.2 °F 100% 30.01 in 5.0 mi Calm Calm - N/A   Overcast
5:24 AM 37.4 °F - 37.4 °F 100% 30.02 in 2.0 mi Calm Calm - N/A   Overcast
5:30 AM 39.2 °F - 37.4 °F 93% 30.02 in 3.0 mi Calm Calm - N/A   Overcast
5:53 AM 37.9 °F 35.5 °F 37.9 °F 100% 30.03 in 6.0 mi East 3.5 mph - N/A   Mostly Cloudy
6:00 AM 39.2 °F 37.0 °F 37.4 °F 93% 30.02 in 6.0 mi East 3.5 mph - N/A   Mostly Cloudy
6:10 AM 37.4 °F - 37.4 °F 100% 30.03 in 6.0 mi Calm Calm - N/A   Mostly Cloudy
6:17 AM 37.4 °F - 37.4 °F 100% 30.03 in 2.0 mi Calm Calm - 0.00 in Rain Light Rain
6:29 AM 37.4 °F - 37.4 °F 100% 30.03 in 6.0 mi Calm Calm - 0.00 in   Mostly Cloudy
6:49 AM 37.4 °F - 37.4 °F 100% 30.04 in 2.5 mi Calm Calm - 0.00 in Rain Light Rain
6:53 AM 37.9 °F - 37.0 °F 97% 30.05 in 2.0 mi Calm Calm - 0.00 in Rain Light Rain
7:04 AM 37.4 °F - 37.4 °F 100% 30.04 in 2.5 mi Calm Calm - 0.01 in Rain Light Rain
7:12 AM 39.2 °F - 39.2 °F 100% 30.04 in 4.0 mi Calm Calm - 0.02 in Rain Light Rain
7:35 AM 39.2 °F - 39.2 °F 100% 30.05 in 1.8 mi Calm Calm - 0.02 in Rain Light Rain
7:47 AM 39.2 °F 37.0 °F 39.2 °F 100% 30.05 in 2.0 mi East 3.5 mph - 0.04 in Rain Light Rain
7:53 AM 39.0 °F - 39.0 °F 100% 30.06 in 4.0 mi Calm Calm - 0.04 in Rain Light Rain
8:10 AM 39.2 °F 37.0 °F 39.2 °F 100% 30.05 in 4.0 mi East 3.5 mph - 0.01 in Rain Light Rain
8:28 AM 39.2 °F 37.0 °F 39.2 °F 100% 30.06 in 4.0 mi East 3.5 mph - 0.01 in   Overcast
8:40 AM 39.2 °F 37.0 °F 39.2 °F 100% 30.06 in 2.5 mi East 3.5 mph - 0.01 in   Overcast
8:53 AM 39.9 °F 37.8 °F 39.9 °F 100% 30.07 in 2.5 mi ENE 3.5 mph - 0.01 in   Overcast
9:21 AM 41.0 °F 37.1 °F 39.2 °F 93% 30.07 in 4.0 mi East 5.8 mph - N/A   Overcast
9:51 AM 41.0 °F - 41.0 °F 100% 30.09 in 4.0 mi Calm Calm - N/A   Overcast
9:53 AM 41.0 °F - 41.0 °F 100% 30.09 in 4.0 mi Calm Calm - N/A   Overcast
10:53 AM 42.1 °F - 42.1 °F 100% 30.12 in 4.0 mi Calm Calm - N/A   Overcast
11:53 AM 45.0 °F 43.5 °F 43.0 °F 93% 30.11 in 4.0 mi SE 3.5 mph - 0.00 in Rain Light Rain
12:53 PM 45.0 °F - 43.0 °F 93% 30.11 in 5.0 mi Calm Calm - 0.00 in   Overcast
1:53 PM 45.0 °F 43.5 °F 42.1 °F 90% 30.11 in 3.0 mi SSW 3.5 mph - 0.00 in Rain Light Rain
2:53 PM 44.1 °F - 41.0 °F 89% 30.11 in 4.0 mi Calm Calm - 0.00 in Rain Light Rain
3:25 PM 44.6 °F - 42.8 °F 93% 30.10 in 4.0 mi Calm Calm - 0.00 in   Overcast
3:53 PM 44.6 °F - 42.8 °F 93% 30.11 in 4.0 mi Calm Calm - N/A   Overcast
4:13 PM 44.6 °F 42.2 °F 42.8 °F 93% 30.10 in 1.8 mi ESE 4.6 mph - 0.00 in Rain Light Rain
4:22 PM 44.6 °F 43.1 °F 42.8 °F 93% 30.10 in 2.0 mi ESE 3.5 mph - 0.00 in Rain Light Rain
4:31 PM 42.8 °F 41.1 °F 42.8 °F 100% 30.11 in 5.0 mi SE 3.5 mph - N/A   Overcast
4:53 PM 43.0 °F - 41.0 °F 93% 30.12 in 6.0 mi Calm Calm - 0.00 in   Overcast
5:31 PM 42.8 °F 40.1 °F 41.0 °F 93% 30.10 in 6.0 mi East 4.6 mph - N/A   Overcast
5:53 PM 42.1 °F 40.2 °F 39.9 °F 92% 30.11 in 6.0 mi SE 3.5 mph - N/A   Overcast
6:14 PM 42.8 °F 41.1 °F 39.2 °F 87% 30.10 in 7.0 mi ESE 3.5 mph - N/A   Overcast
6:53 PM 42.1 °F - 39.9 °F 92% 30.10 in 7.0 mi Calm Calm - N/A   Overcast
7:53 PM 42.1 °F 39.2 °F 39.0 °F 89% 30.10 in 6.0 mi East 4.6 mph - 0.00 in Rain Light Rain
8:44 PM 42.8 °F 41.1 °F 39.2 °F 87% 30.09 in 7.0 mi ESE 3.5 mph - 0.00 in Rain Light Rain
8:53 PM 42.1 °F 40.2 °F 39.0 °F 89% 30.09 in 6.0 mi East 3.5 mph - 0.00 in Rain Light Rain
9:28 PM 41.0 °F 39.0 °F 39.2 °F 93% 30.09 in 5.0 mi East 3.5 mph - 0.00 in Rain Light Rain
9:53 PM 41.0 °F 38.0 °F 39.0 °F 93% 30.10 in 5.0 mi ENE 4.6 mph - 0.00 in Rain Light Rain
10:53 PM 39.9 °F 36.7 °F 39.0 °F 97% 30.10 in 6.0 mi East 4.6 mph - 0.00 in Rain Light Rain
11:53 PM 39.9 °F 36.7 °F 39.0 °F 97% 30.10 in 4.0 mi ENE 4.6 mph - 0.02 in Rain Light Rain